This is the latest recevied weather packets stored in our database for station/object IN3APK-3. If no packets are shown the sender has not sent any weather packets the latest 10 day(s).
| Time | Temp. | Humidity | Pressure | Rain* | Wind** | Luminosity | Snow |
|---|---|---|---|---|---|---|---|
| 1777668051 | 9.44° C | 39% | 1020.2 hPa | - | - | - | - |
| 1777667399 | 9.44° C | 38% | 1020.1 hPa | - | - | - | - |
| 1777666746 | 9.44° C | 38% | 1020.1 hPa | - | - | - | - |
| 1777666095 | 10° C | 37% | 1019.9 hPa | - | - | - | - |
| 1777665442 | 10° C | 37% | 1019.8 hPa | - | - | - | - |
| 1777664790 | 10.56° C | 37% | 1019.8 hPa | - | - | - | - |
| 1777664139 | 11.11° C | 36% | 1019.5 hPa | - | - | - | - |
| 1777663487 | 11.11° C | 36% | 1019.3 hPa | - | - | - | - |
| 1777662184 | 12.22° C | 35% | 1019.1 hPa | - | - | - | - |
| 1777661532 | 12.78° C | 34% | 1018.9 hPa | - | - | - | - |
| 1777660881 | 13.89° C | 33% | 1018.6 hPa | - | - | - | - |
| 1777660229 | 15° C | 33% | 1018.5 hPa | - | - | - | - |
| 1777659577 | 16.11° C | 32% | 1018.2 hPa | - | - | - | - |
| 1777658926 | 17.78° C | 31% | 1018 hPa | - | - | - | - |
| 1777658276 | 21.11° C | 29% | 1017.8 hPa | - | - | - | - |
| 1777657625 | 22.78° C | 29% | 1017.6 hPa | - | - | - | - |
| 1777656974 | 23.33° C | 28% | 1017.5 hPa | - | - | - | - |
| 1777656323 | 25° C | 27% | 1017.3 hPa | - | - | - | - |
| 1777655672 | 26.11° C | 27% | 1017.3 hPa | - | - | - | - |
| 1777654369 | 27.78° C | 26% | 1017.1 hPa | - | - | - | - |
| 1777653717 | 27.78° C | 26% | 1017.1 hPa | - | - | - | - |
| 1777653066 | 27.78° C | 26% | 1017.1 hPa | - | - | - | - |
| 1777652415 | 28.89° C | 26% | 1017.2 hPa | - | - | - | - |
| 1777651110 | 28.33° C | 25% | 1017.1 hPa | - | - | - | - |
| 1777650459 | 28.89° C | 25% | 1017 hPa | - | - | - | - |
* Rain since midnight (hover to see other rain measurements)
** Current wind speed in m/s (hover to see current wind gust speed)